Terminal Aerodrome Forecast
Issued by NWS

Home | Current Version | Previous Version | Text Only | Print | Product List | Glossary On
Versions: 1 2 3 4 5 6 7 8 9 10 11 12 13 14 15 16 17 18 19
000
FTUS45 KMSO 240500
TAFSMN
TAF
KSMN 240531Z 2406/2506 22010KT P6SM SCT100
     FM240900 01010KT P6SM BKN100
     FM241900 32010G22KT P6SM SCT100
     FM250200 35008KT P6SM SKC
      AMD LTD TO CLD VIS AND WIND=

USA.gov is the U.S. government's official web portal to all federal, state and local government web resources and services.